SCP
1 0 0 0 0 0 0 0 0 0 0 0 0 0 0 0 0 0 0 0 0 -0 -0 -0 -0 -0 0 0 0 0 0 0 0 0 0 0 0 0
0 0 0 0 0 0 0 0 0 0 0 0 0 0 0 0 0 0 0 0 -0 -0 -0 -0 -0 -0 0 0 0 0 0 0 0 0 0 0 0 0
0 0 0 0 0 0 0 0 0 0 0 0 0 0 0 0 0 0 0 -0 -0 -0 -0 -0 -0 0 0 0 0 0 0 0 0 0 0 0 0 0
0 0 0 0 1 1 1 1 1 1 1 0 0 0 0 0 0 0 -0 -0 -0 -0 -0 -0 0 0 0 0 0 0 0 0 0 0 0 0 0 0
0 0 0 0 1 1 1 1 1 1 1 1 1 1 0 0 0 0 0 0 -0 0 0 0 0 0 0 0 0 0 0 -0 -0 0 0 0 0 0
0 0 0 0 0 1 1 1 1 1 1 1 1 1 1 0 0 0 0 0 0 0 0 0 0 0 0 0 -0 -0 -0 -0 -0 0 0 0 0 0
0 0 0 0 0 0 0 1 1 1 1 1 1 1 1 1 0 0 0 0 0 0 0 0 0 0 0 0 0 0 -0 -0 0 0 0 0 0 0
0 0 0 0 0 0 0 0 0 0 0 1 1 1 1 1 0 0 0 0 0 0 0 0 0 0 0 0 0 0 -0 -0 0 0 0 -0 0 0
0 0 0 0 0 0 0 0 0 0 0 0 0 0 0 0 0 0 0 0 0 0 0 0 1 1 0 0 0 0 0 0 0 0 0 -0 0 0
0 0 0 0 0 0 0 0 0 0 0 0 0 0 0 0 0 0 0 0 0 0 0 1 1 1 1 0 0 0 0 0 0 0 0 0 0 0
0 0 0 0 0 0 0 0 0 0 0 0 0 0 0 0 0 0 0 0 0 0 0 0 1 1 1 0 0 0 0 0 0 0 0 0 0 0
0 0 0 0 0 0 0 0 0 0 0 0 0 0 0 0 0 0 0 0 0 0 0 0 0 0 0 0 0 0 0 0 0 0 0 0 0 0
0 0 0 0 0 0 0 0 0 0 0 0 0 0 0 0 0 0 0 0 0 0 0 0 0 0 0 0 0 0 0 0 0 0 0 0 0 0
0 0 0 0 -0 -0 0 0 0 0 0 0 0 0 0 0 0 0 0 0 0 0 0 0 0 0 0 0 0 0 0 0 0 0 0 0 0 0
0 0 0 0 0 0 0 0 0 0 0 0 0 0 0 0 0 0 0 0 0 0 0 0 0 0 0 0 0 0 0 0 0 0 0 0 0 0
0 0 0 0 0 0 0 0 0 0 0 0 0 0 0 0 0 0 0 0 0 0 0 0 0 0 0 0 0 0 0 0 0 0 0 0 0 0
0 0 0 0 0 0 0 0 0 0 0 0 0 0 0 0 0 0 0 0 0 0 0 0 0 0 0 0 0 0 0 0 0 0 0 0 0 0
0 0 0 0 0 0 0 0 0 0 0 0 0 0 0 0 0 0 0 0 0 0 0 0 0 0 0 0 0 0 0 0 0 0 0 0 0 0
0 0 0 0 0 0 0 0 0 0 0 0 0 0 0 0 0 0 0 0 0 0 0 0 0 0 0 0 0 0 0 0 0 0 0 0 0 0
0 0 0 0 0 0 0 0 0 0 0 0 0 0 0 0 0 0 0 0 0 0 0 0 0 0 0 0 0 0 0 0 0 0 0 0 0 0
0 0 0 0 0 0 0 0 0 0 0 0 0 0 0 0 0 0 0 0 0 0 0 0 0 0 0 0 0 0 0 0 0 0 0 0 0 0
0 0 0 0 0 0 0 0 0 0 0 0 0 0 0 0 0 0 0 0 0 0 0 0 0 0 0 0 0 0 0 0 0 0 0 0 0 0
0 0 0 0 0 0 0 0 0 0 0 0 0 0 0 0 0 0 0 0 0 0 0 0 0 0 0 0 0 0 0 0 0 0 0 0 0 0
Wind_Speed
8 9 9 9 8 6 7 5 6 7 6 6 1 1 1 5 6 7 7 8 9 11 11 12 12 12 12 13 13 13 12 12 12 12 11 11 12 12
7 7 8 8 7 8 7 6 6 7 7 4 2 2 2 5 9 7 8 6 6 8 9 11 11 13 12 12 13 12 13 13 12 11 10 11 12 12
8 9 9 9 9 7 7 7 7 7 8 7 6 4 6 6 9 7 7 7 7 10 11 11 12 12 13 13 13 13 12 12 12 12 13 14 14 13
7 7 8 8 7 8 7 8 8 7 7 8 6 5 6 8 9 9 8 9 9 12 13 12 13 14 14 14 13 12 12 13 14 14 14 15 15 15
7 7 6 8 7 6 6 6 6 5 5 6 6 5 3 5 7 9 8 7 6 12 11 10 11 13 14 14 13 13 13 13 13 13 13 13 14 13
3 5 5 6 6 5 5 5 5 6 5 6 7 5 4 3 5 7 7 6 6 10 10 10 12 13 13 13 13 12 12 12 13 13 13 13 12 11
3 4 5 7 8 8 6 4 3 4 5 6 5 5 5 3 2 3 4 4 4 5 7 11 12 12 12 11 11 12 12 12 13 13 12 13 12 11
3 3 4 6 5 7 9 9 9 6 4 3 3 2 2 1 2 3 5 3 5 5 4 6 10 8 9 6 2 1 7 11 13 13 13 12 10 9
6 4 4 4 3 1 2 4 6 6 6 5 4 3 1 2 1 3 5 4 5 4 4 6 10 7 5 6 2 4 4 4 7 9 9 7 4 2
7 7 7 8 9 10 6 5 7 8 8 7 6 5 4 3 2 1 2 7 7 4 3 4 6 7 6 6 2 5 6 7 3 2 5 4 4 5
9 10 9 8 9 13 7 6 6 5 5 5 4 3 3 1 2 2 2 3 5 3 1 2 1 1 4 3 3 5 4 3 4 4 3 8 8 5
7 7 8 8 8 11 10 8 7 6 5 3 3 4 5 3 2 2 2 2 3 2 3 3 4 4 4 3 1 2 3 4 3 3 2 4 5 4
6 7 7 11 11 8 6 6 5 7 3 1 1 2 2 3 3 1 1 3 1 2 1 3 1 2 1 2 2 3 4 3 2 3 3 4 4 4
2 2 4 7 8 7 5 4 5 7 6 3 3 4 4 5 4 4 4 5 5 4 2 3 4 4 4 4 3 3 3 4 3 2 1 2 3 3
5 5 5 5 6 3 2 6 5 3 4 5 5 4 4 3 1 0 1 1 3 4 5 6 5 3 2 2 4 3 2 1 1 1 3 4 4 1
5 4 6 6 5 5 5 5 3 3 4 4 4 3 2 1 0 1 1 1 1 4 5 5 3 4 4 4 5 5 4 3 3 2 3 3 3 3
7 5 5 7 11 7 5 4 5 5 4 4 4 5 4 3 1 1 2 3 3 4 6 5 4 5 7 6 3 4 5 4 4 2 2 4 4 5
2 1 1 1 4 10 10 6 4 4 5 5 5 6 6 6 4 4 4 4 4 3 3 5 5 4 4 5 6 3 2 3 2 2 3 1 5 5
5 3 3 4 5 6 7 5 5 5 5 7 7 7 7 7 6 7 6 5 5 4 3 3 4 5 5 5 6 3 3 2 1 1 2 3 2 4
6 6 6 5 6 6 7 6 6 6 6 7 7 8 9 8 8 7 7 7 5 5 5 5 5 6 5 3 3 6 3 4 2 2 3 3 0 2
5 5 5 5 6 6 6 7 7 7 7 7 8 9 9 9 10 9 7 8 5 8 8 6 6 4 2 3 4 6 7 2 3 5 5 6 3 3
3 4 4 4 6 6 6 8 9 8 8 8 8 9 9 9 9 11 10 7 8 11 12 6 6 7 7 8 9 4 8 10 7 5 3 3 4 6
4 5 6 6 6 7 7 9 10 10 8 7 8 9 9 10 9 8 10 11 6 6 6 6 4 7 7 9 10 8 7 7 7 9 10 10 8 7
Wind_Direction
266 262 262 270 270 271 276 288 270 276 281 272 294 82 156 108 90 97 108 124 137 141 151 165 176 178 182 189 198 200 199 204 211 217 225 236 243 248
278 277 272 277 276 256 254 250 249 254 263 284 269 206 209 126 129 139 131 159 172 174 187 192 190 188 192 196 202 203 202 208 213 218 224 234 242 247
287 282 275 267 263 259 248 241 241 237 247 256 252 189 191 173 150 165 158 210 192 194 199 199 196 194 200 203 206 207 208 214 217 220 226 232 239 245
304 297 290 283 270 259 256 249 244 236 236 245 240 202 195 185 174 187 198 214 213 183 195 196 199 198 199 206 209 208 211 215 217 221 225 232 238 242
319 306 300 286 281 272 270 270 264 251 240 244 237 193 183 196 202 202 208 228 216 160 180 182 200 202 202 208 210 213 218 222 225 228 232 237 239 241
325 332 342 333 328 301 280 277 264 246 227 229 233 207 175 190 207 207 193 199 216 166 180 178 188 197 206 213 218 221 226 232 236 237 236 240 243 241
48 13 15 27 28 17 10 341 310 258 230 244 240 214 184 165 210 227 220 185 219 214 178 166 176 183 187 204 220 220 226 230 238 242 241 242 241 239
67 84 51 27 26 38 45 45 35 13 340 310 277 230 189 63 6 290 260 219 212 215 217 195 159 166 162 131 86 201 215 227 229 233 234 236 238 240
29 35 81 49 358 45 129 129 78 51 24 19 38 55 73 74 22 322 302 245 232 220 211 206 153 155 134 108 357 328 306 216 224 227 225 226 234 255
60 55 53 55 15 346 9 33 46 50 28 37 56 59 44 40 66 141 355 338 318 276 292 241 154 164 164 132 115 42 16 358 9 195 185 145 109 108
63 44 35 38 3 340 9 47 50 66 100 92 104 127 125 62 2 34 9 353 305 265 292 245 124 241 185 192 111 91 79 59 29 33 93 105 110 145
83 74 47 10 2 1 12 24 40 26 17 83 144 175 171 178 226 237 271 272 289 332 0 304 188 188 200 180 168 170 144 127 123 118 105 115 142 210
54 37 26 357 351 358 3 14 353 318 295 126 95 109 105 117 134 139 238 275 238 204 258 313 333 125 108 153 118 37 18 39 94 136 150 165 177 254
95 60 15 352 333 345 359 349 297 289 313 353 58 60 40 28 30 29 31 22 29 22 26 272 241 193 180 172 139 117 75 32 356 3 95 136 181 236
12 355 323 296 277 273 317 289 278 313 334 338 4 44 53 49 336 240 107 90 94 55 27 2 358 37 357 92 111 127 118 87 67 72 53 29 15 9
52 27 329 303 274 270 288 283 323 357 336 337 328 325 318 307 86 252 213 189 122 91 69 42 35 49 69 77 104 122 141 134 94 58 93 77 51 45
333 353 10 354 334 326 317 323 327 327 323 332 318 297 271 253 216 164 289 274 223 150 132 111 60 50 37 12 79 89 92 84 54 38 103 92 59 36
289 352 330 319 298 299 308 314 315 313 318 318 298 288 286 272 252 200 205 246 251 212 175 152 167 166 146 85 27 30 67 63 64 14 325 97 111 95
281 295 271 255 265 273 284 304 318 321 317 297 294 292 282 275 265 252 234 221 239 246 238 221 232 229 226 167 117 32 358 23 352 15 340 326 28 65
275 288 290 290 288 289 297 306 312 312 308 310 307 301 295 287 276 264 257 245 242 235 227 220 236 253 275 337 127 118 51 337 326 334 316 290 153 203
300 307 308 311 307 304 306 305 301 302 308 304 293 283 279 279 277 267 258 255 253 281 255 219 193 194 272 297 264 170 142 125 339 328 320 304 300 251
326 320 323 322 311 314 317 305 296 294 290 289 297 298 292 286 284 286 280 259 233 235 250 238 156 186 208 232 251 206 174 164 179 215 259 307 346 341
339 324 317 313 316 319 315 310 305 294 290 297 296 291 288 288 289 295 298 291 274 224 253 297 250 219 220 232 249 245 216 186 201 190 186 194 203 228